Previsão horária em Junín

Hoje, 22 Junho, Terça-feira

Tempo Temperatura Precipitação Vento Pressão Humidade
00:00 +13°C° 0.1 mm 1 m/s 604 mmHg 95%
01:00 +13°C° 0.1 mm 1 m/s 604 mmHg 94%
02:00 +14°C° 0.2 mm 1 m/s 604 mmHg 94%
03:00 +14°C° 0.2 mm 1 m/s 604 mmHg 94%
04:00 +13°C° 0.2 mm 0 m/s 604 mmHg 94%
05:00 +13°C° 0.1 mm 0 m/s 604 mmHg 93%
06:00 +14°C° 0.1 mm 0 m/s 604 mmHg 92%
07:00 +14°C° 0.1 mm 0 m/s 605 mmHg 91%
08:00 +18°C° 0.3 mm 1 m/s 605 mmHg 86%
09:00 +19°C° 0.3 mm 1 m/s 606 mmHg 82%
10:00 +19°C° 0.3 mm 2 m/s 606 mmHg 77%
11:00 +20°C° 0.6 mm 2 m/s 606 mmHg 76%
12:00 +20°C° 0.6 mm 2 m/s 606 mmHg 75%
13:00 +20°C° 0.6 mm 2 m/s 605 mmHg 73%
14:00 +20°C° 0.4 mm 2 m/s 605 mmHg 75%
15:00 +20°C° 0.4 mm 2 m/s 604 mmHg 77%
16:00 +19°C° 0.4 mm 2 m/s 604 mmHg 79%
17:00 +19°C° 0.1 mm 1 m/s 604 mmHg 84%
18:00 +16°C° 0.1 mm 1 m/s 604 mmHg 90%
19:00 +14°C° 0.1 mm 0 m/s 604 mmHg 95%
20:00 +14°C° 0.1 mm 0 m/s 604 mmHg 95%
21:00 +14°C° 0.1 mm 0 m/s 605 mmHg 95%
22:00 +15°C° 0.1 mm 1 m/s 605 mmHg 96%
23:00 +15°C° 0.2 mm 1 m/s 605 mmHg 95%

Amanhã, 23 Junho, Quarta-feira

Tempo Temperatura Precipitação Vento Pressão Humidade
00:00 +14°C° 0.2 mm 0 m/s 604 mmHg 95%
01:00 +14°C° 0.2 mm 0 m/s 604 mmHg 95%
02:00 +14°C° 0 mm 0 m/s 604 mmHg 94%
03:00 +14°C° 0 mm 0 m/s 604 mmHg 94%
04:00 +14°C° 0 mm 1 m/s 604 mmHg 93%
05:00 +14°C° 0 mm 0 m/s 604 mmHg 92%
06:00 +14°C° 0 mm 0 m/s 604 mmHg 91%
07:00 +14°C° 0 mm 0 m/s 605 mmHg 90%
08:00 +18°C° 0.1 mm 1 m/s 605 mmHg 84%
09:00 +19°C° 0.1 mm 1 m/s 606 mmHg 78%
10:00 +21°C° 0.1 mm 1 m/s 606 mmHg 73%
11:00 +20°C° 0.5 mm 2 m/s 606 mmHg 74%
12:00 +20°C° 0.5 mm 2 m/s 605 mmHg 75%
13:00 +20°C° 0.5 mm 2 m/s 605 mmHg 76%
14:00 +20°C° 0.5 mm 2 m/s 605 mmHg 80%
15:00 +19°C° 0.5 mm 2 m/s 604 mmHg 84%
16:00 +19°C° 0.5 mm 1 m/s 604 mmHg 88%
17:00 +18°C° 0.2 mm 1 m/s 604 mmHg 90%
18:00 +16°C° 0.2 mm 1 m/s 604 mmHg 92%
19:00 +14°C° 0.2 mm 0 m/s 604 mmHg 95%
20:00 +15°C° 0 mm 1 m/s 604 mmHg 94%
21:00 +15°C° 0 mm 1 m/s 604 mmHg 94%
22:00 +14°C° 0 mm 1 m/s 604 mmHg 94%
23:00 +14°C° 0 mm 1 m/s 604 mmHg 94%

Depois de amanhã, 24 Junho, Quinta-feira

Tempo Temperatura Precipitação Vento Pressão Humidade
00:00 +14°C° 0 mm 1 m/s 604 mmHg 94%
01:00 +14°C° 0 mm 1 m/s 603 mmHg 94%
02:00 +14°C° 0 mm 1 m/s 603 mmHg 94%
03:00 +13°C° 0 mm 1 m/s 603 mmHg 94%
04:00 +13°C° 0 mm 1 m/s 603 mmHg 93%
05:00 +14°C° 0 mm 1 m/s 603 mmHg 92%
06:00 +13°C° 0 mm 0 m/s 604 mmHg 91%
07:00 +14°C° 0 mm 0 m/s 604 mmHg 90%
08:00 +15°C° 0 mm 0 m/s 605 mmHg 87%
09:00 +18°C° 0 mm 1 m/s 605 mmHg 84%
10:00 +18°C° 0 mm 1 m/s 605 mmHg 81%
11:00 +20°C° 0.2 mm 1 m/s 605 mmHg 77%
12:00 +20°C° 0.2 mm 2 m/s 605 mmHg 73%
13:00 +21°C° 0.2 mm 2 m/s 604 mmHg 69%
14:00 +20°C° 0.4 mm 2 m/s 604 mmHg 75%
15:00 +19°C° 0.4 mm 2 m/s 603 mmHg 81%
16:00 +19°C° 0.4 mm 1 m/s 603 mmHg 87%
17:00 +18°C° 0.2 mm 1 m/s 603 mmHg 90%
18:00 +16°C° 0.2 mm 1 m/s 603 mmHg 94%
19:00 +14°C° 0.2 mm 0 m/s 604 mmHg 98%
20:00 +14°C° 0 mm 0 m/s 604 mmHg 98%
21:00 +14°C° 0 mm 0 m/s 604 mmHg 97%
22:00 +14°C° 0 mm 0 m/s 604 mmHg 96%
23:00 +13°C° 0 mm 0 m/s 604 mmHg 96%

25 Junho, Sexta-feira

Tempo Temperatura Precipitação Vento Pressão Humidade
00:00 +14°C° 0 mm 1 m/s 603 mmHg 96%
01:00 +14°C° 0 mm 1 m/s 603 mmHg 96%
02:00 +13°C° 0 mm 1 m/s 603 mmHg 96%
03:00 +13°C° 0 mm 1 m/s 603 mmHg 95%
04:00 +13°C° 0 mm 1 m/s 603 mmHg 95%
05:00 +14°C° 0 mm 1 m/s 603 mmHg 94%
06:00 +14°C° 0 mm 1 m/s 604 mmHg 93%
07:00 +14°C° 0 mm 0 m/s 604 mmHg 91%
08:00 +16°C° 0.3 mm 1 m/s 604 mmHg 88%
09:00 +19°C° 0.3 mm 1 m/s 605 mmHg 85%
10:00 +20°C° 0.3 mm 1 m/s 605 mmHg 82%
11:00 +19°C° 0.7 mm 2 m/s 605 mmHg 82%
12:00 +19°C° 0.7 mm 2 m/s 604 mmHg 81%
13:00 +20°C° 0.7 mm 2 m/s 604 mmHg 81%
14:00 +19°C° 0.4 mm 2 m/s 603 mmHg 83%
15:00 +19°C° 0.4 mm 2 m/s 603 mmHg 86%
16:00 +19°C° 0.4 mm 1 m/s 602 mmHg 88%
17:00 +18°C° 0.1 mm 1 m/s 603 mmHg 90%
18:00 +16°C° 0.1 mm 1 m/s 603 mmHg 92%
19:00 +14°C° 0.1 mm 0 m/s 603 mmHg 95%
20:00 +14°C° 0 mm 0 m/s 603 mmHg 94%
21:00 +15°C° 0 mm 1 m/s 604 mmHg 93%
22:00 +15°C° 0 mm 1 m/s 604 mmHg 92%
23:00 +15°C° 0 mm 1 m/s 603 mmHg 93%

26 Junho, Sábado

Tempo Temperatura Precipitação Vento Pressão Humidade
00:00 +14°C° 0 mm 1 m/s 603 mmHg 94%
01:00 +13°C° 0 mm 1 m/s 602 mmHg 96%
02:00 +13°C° 0 mm 1 m/s 602 mmHg 95%
03:00 +13°C° 0 mm 1 m/s 602 mmHg 95%
04:00 +12°C° 0 mm 1 m/s 602 mmHg 95%
05:00 +13°C° 0 mm 1 m/s 602 mmHg 93%
06:00 +14°C° 0 mm 1 m/s 603 mmHg 91%
07:00 +14°C° 0 mm 0 m/s 604 mmHg 89%
08:00 +18°C° 0.1 mm 1 m/s 604 mmHg 83%
09:00 +19°C° 0.1 mm 1 m/s 605 mmHg 77%
10:00 +20°C° 0.1 mm 2 m/s 605 mmHg 71%
11:00 +20°C° 0.5 mm 2 m/s 605 mmHg 72%
12:00 +20°C° 0.5 mm 2 m/s 604 mmHg 74%
13:00 +20°C° 0.5 mm 2 m/s 604 mmHg 76%
14:00 +20°C° 0.4 mm 2 m/s 603 mmHg 79%
15:00 +19°C° 0.4 mm 2 m/s 603 mmHg 82%
16:00 +20°C° 0.4 mm 1 m/s 602 mmHg 85%
17:00 +18°C° 0.1 mm 1 m/s 603 mmHg 89%
18:00 +16°C° 0.1 mm 1 m/s 603 mmHg 92%
19:00 +14°C° 0.1 mm 0 m/s 603 mmHg 96%
20:00 +15°C° 0 mm 1 m/s 603 mmHg 95%
21:00 +15°C° 0 mm 1 m/s 604 mmHg 95%
22:00 +15°C° 0 mm 1 m/s 604 mmHg 94%
23:00 +14°C° 0 mm 1 m/s 604 mmHg 94%

27 Junho, Domingo

Tempo Temperatura Precipitação Vento Pressão Humidade
00:00 +14°C° 0 mm 1 m/s 603 mmHg 94%
01:00 +13°C° 0 mm 1 m/s 603 mmHg 94%
02:00 +13°C° 0 mm 1 m/s 602 mmHg 94%
03:00 +13°C° 0 mm 1 m/s 602 mmHg 94%
04:00 +13°C° 0 mm 1 m/s 602 mmHg 94%
05:00 +13°C° 0 mm 0 m/s 602 mmHg 93%
06:00 +13°C° 0 mm 0 m/s 603 mmHg 92%
07:00 +14°C° 0 mm 0 m/s 603 mmHg 91%
08:00 +14°C° 0.2 mm 0 m/s 604 mmHg 91%
09:00 +16°C° 0.2 mm 1 m/s 604 mmHg 91%
10:00 +16°C° 0.2 mm 1 m/s 604 mmHg 91%
11:00 +18°C° 0.2 mm 1 m/s 604 mmHg 90%
12:00 +19°C° 0.2 mm 1 m/s 604 mmHg 88%
13:00 +19°C° 0.2 mm 1 m/s 604 mmHg 86%
14:00 +19°C° 0.2 mm 1 m/s 603 mmHg 89%
15:00 +18°C° 0.2 mm 1 m/s 603 mmHg 91%
16:00 +18°C° 0.2 mm 1 m/s 603 mmHg 94%
17:00 +16°C° 0.1 mm 1 m/s 603 mmHg 95%
18:00 +15°C° 0.1 mm 0 m/s 603 mmHg 96%
19:00 +14°C° 0.1 mm 0 m/s 603 mmHg 97%
20:00 +14°C° 0 mm 0 m/s 604 mmHg 97%
21:00 +14°C° 0 mm 0 m/s 604 mmHg 97%
22:00 +14°C° 0 mm 0 m/s 604 mmHg 97%
23:00 +14°C° 0.4 mm 0 m/s 604 mmHg 97%
Mostrar mais

Necessitamos do seu Consentimento

A Meteoprog e os seus Fornecedores de Serviços podem armazenar e aceder a dados pessoais como cookies, identificadores do dispositivo ou outras tecnologias semelhantes existentes no seu dispositivo e processar estes dados para personalizar conteúdos e anúncios, assim como funcionalidades nas redes sociais e análise de tráfego.

  • Armazenar e/ou aceder a informações no seu dispositivo

    Os cookies, identificadores do dispositivo ou outras informações podem ser armazenados ou acedidos no seu dispositivo, para os fins acima indicados.

  • Anúncios e conteúdos personalizados, medição de anúncios e conteúdos, dados sobre o público-alvo e desenvolvimento de produtos

    Os anúncios e os conteúdos podem ser personalizados com base num perfil. Podem ser adicionados dados adicionais para uma maior personalização dos anúncios e dos conteúdos. A eficácia dos anúncios e dos conteúdos pode ser medida. Podem ser obtidas informações sobre o público que visualizou os anúncios e os conteúdos. Estes dados podem ser usados para desenvolver ou melhorar sistemas, softwares ou a experiência do utilizador.

Ao clicar em "Eu concordo”, permitirá o uso de cookies, identificadores do dispositivo e web beacons mencionados ou outras tecnologias semelhantes. As configurações do navegador do seu dispositivo podem ser alteradas.

Para certos fins, podem ser invocados interesses legítimos ao invés de consentimento. Pode ler mais informação sobre este assunto na nossa Política de Privacidade e Cookies.